Regional Weather Roundup
Issued by NWS

Home | Current Version | Previous Version | Text Only | Print | Product List | Glossary On
Versions: 1 2 3 4 5 6 7 8 9 10 11 12 13 14 15 16 17 18 19 20 21 22 23 24 25 26 27 28 29 30 31 32 33 34 35 36 37 38 39 40 41 42 43 44 45 46 47 48 49 50
000
ASUS43 KDTX 070901
RWRMI
MICHIGAN HOURLY REGIONAL WEATHER ROUNDUP
NATIONAL WEATHER SERVICE DETROIT/PONTIAC MI
400 AM EST SUN FEB 07 2016

NOTE: "FAIR" INDICATES FEW OR NO CLOUDS BELOW 12,000 FEET WITH NO
SIGNIFICANT WEATHER AND/OR OBSTRUCTION TO VISIBILITY.

MIZ047>049-052>055-059>063-066>070-074>076-081>083-071000-
SOUTHEAST LOWER MICHIGAN

CITY           SKY/WX    TMP DP  RH WIND       PRES   REMARKS
ADRIAN         PTCLDY    29  24  82 SW5       30.06F WCI  24
ALMA           PTCLDY    33  30  90 S8        29.99F WCI  26
ANN ARBOR      CLOUDY    30  26  85 S3        30.05F
BAD AXE        CLOUDY    32  26  79 S8        30.01F WCI  25
CARO           MOCLDY    32  27  81 S5        30.00F WCI  27
DETROIT CITY   CLOUDY    32  25  75 S6        30.07F WCI  26
DETROIT        CLOUDY    30  25  81 S6        30.08F WCI  24
FLINT          PTCLDY    36  26  67 S8        30.02F WCI  30
GROSSE ILE     PTCLDY    34  28  80 S6        30.06F WCI  29
HILLSDALE      CLOUDY    30  25  83 S3        30.03F
HOWELL         CLOUDY    32  26  80 S3        30.02F

CITY           SKY/WX    TMP DP  RH WIND       PRES   REMARKS
JACKSON        CLOUDY    33  25  72 S5        30.02F WCI  29
LAMBERTVILLE   MOCLDY    31  25  78 S6        30.08F WCI  25
LANSING        PTCLDY    33  26  75 S8        30.01F WCI  26
LAPEER         FAIR      32  28  84 S5        30.03F WCI  27
MASON          CLOUDY    31  27  86 S5        30.02F WCI  26
MONROE         CLOUDY    30  25  81 S3        30.07F
MT. CLEMENS    CLOUDY    31  26  81 S5        30.05F WCI  26
PONTIAC        CLOUDY    32  25  75 S5        30.03F WCI  27
PORT HOPE        N/A     32  25  75 S6        30.00F WCI  26
PORT HURON     CLOUDY    30  27  86 S5        30.07F WCI  25
TRI CITIES     CLOUDY    33  26  75 S7        30.00F WCI  27
MIDLAND        MOCLDY    32  27  80 S3        29.98F
TROY           CLOUDY    33  26  75 S5        30.07F WCI  29
SAGINAW HB     CLOUDY    32  30  93 S7        30.00F WCI  26
$$
MIZ043>046-050>051-056>058-064>065-071>073-077>080-071000-
SOUTHWEST LOWER MICHIGAN

CITY           SKY/WX    TMP DP  RH WIND       PRES   REMARKS
BATTLE CREEK   CLOUDY    32  26  78 S8        30.01F WCI  25
BENTON HARBOR  CLOUDY    36  28  73 S7        30.01F WCI  30
BIG RAPIDS     CLOUDY    32  30  93 SE3       29.93F FOG
COLDWATER      CLOUDY    33  27  78 S5        30.02F WCI  29
FREMONT        MOCLDY    32  32  99 S6        29.94F FOG     WCI  27
HOLLAND        CLOUDY    36  30  79 S7        29.99F WCI  30
GRAND RAPIDS   CLOUDY    32  28  85 S6        29.99F WCI  26
IONIA          MOCLDY    32  28  85 S6        29.98F WCI  26
KALAMAZOO      CLOUDY    31  25  78 S6        30.01F WCI  25
LUDINGTON      CLOUDY    36  32  86 S9        29.91F WCI  29
MARSHALL       PTCLDY    33  27  76 SW6       30.01F WCI  28
MOUNT PLEASANT CLOUDY    32  27  83 S3        29.96F
MUSKEGON       CLOUDY    37  33  85 S8        29.96F WCI  31
SOUTH HAVEN    CLOUDY    35  29  79 S6        30.00F WCI  30
$$
MIZ016>042-071000-
NORTHERN LOWER MICHIGAN

CITY           SKY/WX    TMP DP  RH WIND       PRES   REMARKS
ALPENA         CLOUDY    26  23  88 SE5       29.95F WCI  20
BEAVER ISLAND  CLOUDY    34  32  91 S9        29.83F WCI  27
BELLAIRE       CLOUDY    32  28  85 S6        29.89F WCI  27
CADILLAC       CLOUDY    32  31  94 S10       29.89F WCI  24
CHARLEVOIX     CLOUDY    31  28  86 SE9       29.89F WCI  23
FRANKFORT      CLOUDY    36  31  83 S12G17    29.87F WCI  27
GAYLORD        CLOUDY    28  25  88 S9        29.87F WCI  19
GRAYLING       CLOUDY    29  27  92 S5        29.90F FOG     WCI  24
HARBOR SPRINGS CLOUDY    30  26  86 CALM      29.87F
HOUGHTON LAKE  CLOUDY    31  28  89 S8        29.92F WCI  23
MANISTEE       CLOUDY    34  28  80 S3        29.90F
OSCODA         PTCLDY    31  28  85 S5        29.97F WCI  27
PELLSTON       MOCLDY    27  23  85 SE6       29.88F WCI  20
ROGERS CITY    CLOUDY    28  24  85 S6        29.93F WCI  22
TRAVERSE CITY  CLOUDY    34  28  79 S8        29.87F WCI  27
$$
MIZ007>008-015-071000-
EASTERN UPPER MICHIGAN

CITY           SKY/WX    TMP DP  RH WIND       PRES   REMARKS
KINROSS        CLOUDY    30  30 100 S10       29.86F WCI  21
MACKINAC ISLAN CLOUDY    29  26  88 SE9       29.87F WCI  21
NEWBERRY       CLOUDY    32  31  96 S14       29.79F WCI  22
S. S. MARIE    CLOUDY    29  26  89 SE9       29.86F WCI  20
$$
MIZ004>006-011>014-085-071000-
CENTRAL UPPER MICHIGAN

CITY           SKY/WX    TMP DP  RH WIND       PRES   REMARKS
MANISTIQUE     CLOUDY    34  31  90 SW10      29.80F WCI  26
ESCANABA       CLOUDY    30  27  86 S16G23    29.77F WCI  19
MENOMINEE      CLOUDY    30  27  86 SW15      29.78F WCI  19
SAWYER-GWINN   LGT SNOW  28  27  96 S18G26    29.68F WCI  15
$$
MIZ001>003-009>011-084-071000-
WESTERN UPPER MICHIGAN

CITY           SKY/WX    TMP DP  RH WIND       PRES   REMARKS
IRON MOUNTAIN  CLOUDY    29  25  85 S12       29.70F FOG     WCI  19
HOUGHTON       LGT SNOW  30  28  92 S6        29.62F FOG     WCI  24
COPPER HARBOR    N/A     32  31  96 SW10G17   29.64F WCI  24
IRONWOOD       CLOUDY    30  27  86 S12G21    29.58F WCI  21
$$

ABBREVIATIONS USED IN REMARKS
   TC - TEMPERATURE IN CELSIUS
  WCI - WIND CHILL INDEX
   HX - HEAT INDEX
  VSB - VISIBILITY




USA.gov is the U.S. government's official web portal to all federal, state and local government web resources and services.